Location: Hains Lake
(37.8540°N, 99.8578°W)
Time: 16:48:27
(UTC+00:00)

SR - All Passes

Search period start: 11 April 2021 00:00
Search period end: 21 April 2021 00:00
Orbit: 573 x 882 km, 66.7° (Epoch: 11 April)

Date Brightness Start Highest point End Pass type
(mag) Time Alt. Az. Time Alt. Az. Time Alt. Az.
11 Apr - 01:04:09 10° NNW 01:09:55 59° ENE 01:15:18 10° SE daylight
11 Apr - 02:47:37 10° WNW 02:51:25 19° WSW 02:55:03 10° SW visible
11 Apr - 15:31:24 10° S 15:36:41 58° ESE 15:42:23 10° NE daylight
11 Apr - 17:14:51 10° W 17:19:14 23° NW 17:23:49 10° N daylight
12 Apr - 00:14:42 10° N 00:19:53 32° NE 00:24:47 10° ESE daylight
12 Apr - 01:56:45 10° NW 02:02:02 38° WSW 02:06:57 10° S visible
12 Apr - 14:42:36 10° SSE 14:47:11 28° ESE 14:52:02 10° NE daylight
12 Apr - 16:23:53 10° SW 16:29:04 41° NW 16:34:35 10° NNE daylight
12 Apr - 23:25:38 10° N 23:29:37 18° NE 23:33:26 10° E daylight
13 Apr - 01:06:37 10° NNW 01:12:26 77° WSW 01:17:48 10° SSE daylight
13 Apr - 13:55:15 10° SE 13:57:52 14° ESE 14:00:33 10° ENE daylight
13 Apr - 15:33:39 10° SSW 15:39:07 77° WNW 15:45:00 10° NNE daylight
13 Apr - 17:19:16 10° WNW 17:22:16 14° NW 17:25:20 10° N daylight
13 Apr - 22:37:53 10° NNE 22:39:07 11° NE 22:40:20 10° NE daylight
14 Apr - 00:16:53 10° NNW 00:22:36 55° ENE 00:27:55 10° SE daylight
14 Apr - 02:00:10 10° WNW 02:04:09 20° WSW 02:07:57 10° SSW visible
14 Apr - 14:44:07 10° S 14:49:24 54° ESE 14:55:04 10° NE daylight
14 Apr - 16:27:22 10° WSW 16:31:53 24° NW 16:36:37 10° N daylight
14 Apr - 23:27:28 10° N 23:32:32 30° NE 23:37:20 10° ESE daylight
15 Apr - 01:09:25 10° NW 01:14:45 40° WSW 01:19:43 10° S daylight
15 Apr - 13:55:25 10° SSE 13:59:54 27° ESE 14:04:39 10° NE daylight
15 Apr - 15:36:28 10° SW 15:41:43 43° NW 15:47:19 10° NNE daylight
15 Apr - 22:38:28 10° N 22:42:14 17° NE 22:45:53 10° E daylight
16 Apr - 00:19:20 10° NNW 00:25:07 82° WSW 00:30:29 10° SSE daylight
16 Apr - 13:08:20 10° SE 13:10:36 13° E 13:12:56 10° ENE daylight
16 Apr - 14:46:18 10° SSW 14:51:48 82° WNW 14:57:42 10° NNE daylight
16 Apr - 16:31:38 10° WNW 16:34:53 15° NW 16:38:12 10° N daylight
16 Apr - 23:29:36 10° NNW 23:35:16 52° ENE 23:40:32 10° SE daylight
17 Apr - 01:12:44 10° WNW 01:16:53 21° WSW 01:20:49 10° SSW daylight
17 Apr - 13:56:51 10° S 14:02:07 50° ESE 14:07:44 10° NE daylight
17 Apr - 15:39:53 10° WSW 15:44:32 26° NW 15:49:23 10° N daylight
17 Apr - 22:40:13 10° N 22:45:11 28° NE 22:49:52 10° ESE daylight
18 Apr - 00:22:05 10° NW 00:27:28 43° WSW 00:32:28 10° S daylight
18 Apr - 13:08:14 10° SSE 13:12:38 25° ESE 13:17:15 10° NE daylight
18 Apr - 14:49:04 10° SW 14:54:23 46° WNW 15:00:03 10° NNE daylight
18 Apr - 21:51:17 10° N 21:54:51 16° NE 21:58:18 10° E daylight
18 Apr - 23:32:01 10° NNW 23:37:49 87° WSW 23:43:09 10° SSE daylight
19 Apr - 01:18:37 10° W 01:18:52 10° W 01:19:07 10° WSW daylight
19 Apr - 12:21:30 10° ESE 12:23:20 12° E 12:25:14 10° E daylight
19 Apr - 13:58:58 10° SSW 14:04:29 88° WNW 14:10:24 10° NNE daylight
19 Apr - 15:44:03 10° W 15:47:30 16° NW 15:51:02 10° N daylight
19 Apr - 22:42:20 10° NNW 22:47:56 48° ENE 22:53:07 10° SE daylight
20 Apr - 00:25:19 10° NW 00:29:37 23° WSW 00:33:40 10° SSW daylight
20 Apr - 13:09:35 10° S 13:14:49 47° ESE 13:20:24 10° NE daylight
20 Apr - 14:52:23 10° WSW 14:57:10 27° NW 15:02:09 10° N daylight
20 Apr - 21:53:00 10° N 21:57:49 26° NE 22:02:23 10° ESE daylight
20 Apr - 23:34:44 10° NW 23:40:10 46° WSW 23:45:12 10° S daylight
